Weather Roundup
Issued by NWS

Home | Current Version | Previous Version | Text Only | Print | Product List | Glossary On
Versions: 1 2 3 4 5 6 7 8 9 10 11 12 13 14 15 16 17 18 19 20 21 22 23 24 25 26 27 28 29 30 31 32 33 34 35 36 37 38 39 40 41 42 43 44 45 46 47 48 49 50
000
NZUS93 KARX 030810
HRRWXR

CURRENT HOURLY OBSERVATIONS ACROSS
MUCH OF THE UPPER MISSISSIPPI VALLEY
NATIONAL WEATHER SERVICE LA CROSSE WI
300 AM CDT MON AUG 03 2015


...SOUTHEAST MINNESOTA...


CITY           SKY/WX    TMP DP  RH WIND       PRES   REMARKS
ROCHESTER      CLEAR     57  53  86 NW8       29.89S
ROCHESTER/MAYO FAIR      62  54  74 W6        29.88S
WINONA         CLEAR     61  54  77 N5        29.85S
AUSTIN         CLEAR     61  54  77 NW5       29.90R
ALBERT LEA     CLEAR     59  55  88 CALM      29.91R
DODGE CENTER   PTCLDY    61  52  72 NW8       29.89S
PRESTON        CLEAR     56  53  88 NW6       29.88S
OWATONNA       CLEAR     54  50  87 CALM      29.90R
FARIBAULT      CLEAR     59  54  82 NW5       29.89S
$$

...ELSEWHERE IN MINNESOTA...


CITY           SKY/WX    TMP DP  RH WIND       PRES   REMARKS
MINNEAPOLIS    CLEAR     63  50  62 W5        29.87S
INTNL FALLS    CLOUDY    57  49  74 W6        29.76S
DULUTH         CLEAR     57  46  66 W10       29.79S
RED WING       CLEAR     55  54  94 CALM      29.85S
REDWOOD FALLS  CLEAR     59  52  77 W3        29.91S
MANKATO        CLEAR     59  50  72 W5        29.90S
WORTHINGTON    CLEAR     57  52  82 N6        29.95F
FAIRMONT       CLEAR     61  52  72 NW5       29.93R
$$

...SOUTHWEST WISCONSIN...


CITY           SKY/WX    TMP DP  RH WIND       PRES   REMARKS
LA CROSSE      CLEAR     64  52  64 N5        29.83R
PRAIRIE DU CHI CLEAR     67  57  70 CALM      29.83R
BOSCOBEL       CLEAR     69  55  60 N3        29.83R
LONE ROCK      CLEAR     69  55  60 NW7       29.82R
PLATTEVILLE    CLEAR     68  60  74 N8        29.82R
FORT MC COY    CLEAR     58  49  72 CALM      29.83S
CAMP DOUGLAS   CLEAR     58  56  94 NW8       29.81R
VIROQUA        FAIR      62  50  66 NW5       29.85R
WIS DELLS      CLEAR     64  55  70 NW5       29.80S
$$

...ELSEWHERE IN WISCONSIN...


CITY           SKY/WX    TMP DP  RH WIND       PRES   REMARKS
MILWAUKEE      PTCLDY    67  58  72 NW6       29.74S
MADISON        PTCLDY    66  58  75 CALM      29.79R
GREEN BAY      MOCLDY    62  59  90 NW8       29.75R
EAU CLAIRE     CLEAR     57  47  69 SW3       29.83R
BLACK RVR FLS  FAIR      51  50  97 CALM      29.82S
MEDFORD        CLEAR     55  51  86 W6        29.81S
WAUSAU         CLEAR     61  53  75 NW10      29.78S
WIS RAPIDS     CLEAR     60  54  80 NW7       29.81S
MARSHFIELD     CLEAR     58  51  78 NW8       29.81S
RICE LAKE      CLEAR     54  48  79 W5        29.85S
$$

...NORTHEAST IOWA...


CITY           SKY/WX    TMP DP  RH WIND       PRES   REMARKS
DECORAH        CLEAR     63  57  82 N5        29.85S
MASON CITY     CLEAR     58  55  90 NW7       29.92R
CHARLES CITY   CLEAR     59  57  94 NW5       29.89R
OELWEIN        CLEAR     61  59  94 NW6       29.88R
$$

...ELSEWHERE IN IOWA...


CITY           SKY/WX    TMP DP  RH WIND       PRES   REMARKS
DES MOINES     PTCLDY    71  59  65 CALM      29.91R
IOWA CITY      CLEAR     72  61  68 NW9       29.83S
FORT DODGE     CLEAR     61  55  82 CALM      29.92S
$$

...NORTHERN ILLINOIS...


CITY           SKY/WX    TMP DP  RH WIND       PRES   REMARKS
CHICAGO-OHARE  MOCLDY    68  66  93 W6        29.75S
CHICAGO-MIDWAY MOCLDY    69  65  86 W6        29.74S
MOLINE         CLEAR     72  63  73 W5        29.80R
ROCKFORD       CLOUDY    70  65  84 W5        29.79R
PEORIA         CLEAR     77  66  68 NW7       29.79F
$$

NOTE: "FAIR" INDICATES FEW OR NO CLOUDS BELOW 12,000 FEET WITH NO
SIGNIFICANT WEATHER AND/OR OBSTRUCTIONS TO VISIBILITY. WIND
SPEEDS ARE IN MILES-PER-HOUR.



USA.gov is the U.S. government's official web portal to all federal, state and local government web resources and services.